Location: Buch
(49.7331°N, 12.1098°E)
Time: 08:00:03
(UTC+00:00)

NOSS 3-3 (A) - Pass Details

Date: 12 May 2021
Orbit: 810 x 1402 km, 63.4° (Epoch: 06 June)

Event Time Altitude Azimuth Distance (km) Brightness Sun altitude
Rises 20:37:11 0° 232° (SW) 3,421 6.9 -14.2°
Reaches altitude 10° 20:39:33 10° 236° (SW) 2,538 6.2 -14.4°
Maximum altitude 20:45:24 66° 318° (NW) 1,049 4.4 -15.0°
Drops below altitude 10° 20:52:11 10° 41° (NE) 2,920 6.7 -15.6°
Sets 20:55:05 0° 44° (NE) 3,974 7.4 -15.8°
